Preview of NWS' New Version of Forecast
This preview is not operational and should not be used for support decisions.

Regional Weather Roundup (RWR)

Issued by Mobile/Pensacola (MOB)

                            
000
ASUS44 KMOB 170512
RWRMOB
REGIONAL WEATHER ROUNDUP
NATIONAL WEATHER SERVICE MOBILE AL
1100 PM CST SUN DEC 16 2018

NOTE: "FAIR" INDICATES FEW OR NO CLOUDS BELOW 12,000 FEET WITH NO
      SIGNIFICANT WEATHER AND/OR OBSTRUCTIONS TO VISIBILITY.

  * THESE STATIONS ARE PART OF THE UNIVERSITY OF SOUTH ALABAMA 
    MESONET AND ARE NOT UNDER NWS OR FAA QUALITY CONTROL. 

ALZ061>064-170600-
COASTAL ALABAMA
  
CITY           SKY/WX    TMP DP  RH WIND       PRES   REMARKS
MOBILE REG APT FAIR      48  46  93 CALM      30.26R                  
BROOKLEY FIELD FAIR      51  48  89 W5        30.27R                  
USA CAMPUS*      N/A     48  46  93 CALM      30.26S                  
DOG RIVER*       N/A     48  46  93 CALM        N/A                   

  
CITY           SKY/WX    TMP DP  RH WIND       PRES   REMARKS
GULF SHORES    FAIR      43  43 100 W10       30.25R                  

$$

ALZ051>060-170600-
INTERIOR SOUTHWEST AND SOUTH CENTRAL ALABAMA
  
CITY           SKY/WX    TMP DP  RH WIND       PRES   REMARKS
GREENVILLE     FAIR      49  44  83 NW7       30.20F                  
EVERGREEN      FAIR      49  45  86 VRB3      30.23S                  
ATMORE*          N/A    N/A N/A N/A NW3       31.03R                  
ANDALUSIA/OPP  FAIR      50  45  83 NW6       30.21S                  
ANDALUSIA*       N/A    N/A N/A N/A NW6       30.21S                  
FLORALA APT    FAIR      47  44  90 CALM      30.23S                  
FLORALA*         N/A     48  46  93 CALM      30.95F                  

$$

FLZ001>006-170600-
WESTERN FLORIDA PANHANDLE
  
CITY           SKY/WX    TMP DP  RH WIND       PRES   REMARKS
PENSACOLA      FAIR      47  44  90 NW7       30.23S                  
NAS PENSACOLA  NOT AVBL                                               
MILTON         FAIR      47  47 100 NW3       30.23S                  
WHTNG S FIELD  FAIR      46  46 100 NW6       30.23S                  

  
CITY           SKY/WX    TMP DP  RH WIND       PRES   REMARKS
JAY*             N/A     48  46  93 N5          N/A                   
DUKE FIELD     FAIR      44  44  98 NW5       30.21S                  
CRESTVIEW      FAIR      48  46  93 MISG      30.22F                  
VALPARAISO     FAIR      48  46  91 N6        30.21S                  
DESTIN         FAIR      51  47  86 NW8       30.22R                  

$$

MSZ076-079-170600-
INTERIOR SOUTHEAST MISSISSIPPI
  
CITY           SKY/WX    TMP DP  RH WIND       PRES   REMARKS
LEAKESVILLE*     N/A     48  48 100 CALM      30.26F                  
AGRICOLA*        N/A     48  46  93 CALM      30.24F                  

$$

MARINE OBSERVATIONS
  
STATION/POSITION TIME  TEMP    WIND        PRES    WAVE
                       AIR SEA DIR/SP/G            HT/PER
                 (UTC) (F)     (DEG/KT/KT) (MB)    (FT/S)
PETIT BOIS ISLND 0442   52     340/ 12/ 15 1025.6R
GRAND BAY        0330   51     330/  6     1025.0
KATRINA CUT      0430   53     340/ 11     1024.7S
CEDAR POINT      0430   51     320/  8     1024.4R
E DAUPHIN ISLAND 0400   53     320/  9/ 10 1024.0F
USCG MOBILE BAY  0442   51 56  310/  5/  7 1025.1R
STATE DOCKS      0442   50 52              1024.9R
MEAHER PARK      0430   49        CALM     1025.1R
WEEKS BAY        0345   45                 1024.0S
FORT MORGAN      0442   54     350/ 13/ 14 1024.4R
12 S ORANGE BCH  0450                      1024.3R   1/ 2
PENSACOLA BAY    0442   51 58  330/  3/  5 1023.7F
64 S DAUPHIN ISL 0450      70  350/ 12/ 16 1024.5R   2/ 4

$$

SELECTED LOCATIONS ACROSS THE REGION
  
CITY           SKY/WX    TMP DP  RH WIND       PRES   REMARKS
NEW ORLEANS    MOCLDY    49  48  97 CALM      30.27F                  
GULFPORT       FAIR      47  45  93 NW3       30.26S                  
PASCAGOULA AP  FAIR      47  45  93 CALM      30.26S                  
PASCAGOULA*      N/A     45  45 100 CALM      30.27S                  
HATTIESBURG    FAIR      46  44  93 CALM      30.27F                  
LAUREL         FAIR      47  46  97 CALM      30.26F                  
MERIDIAN       FAIR      44  42  93 CALM      30.26F                  
JACKSON        FAIR      42  41  96 CALM      30.26F                  
MONTGOMERY     FAIR      47  46  97 W7        30.22S                  
TROY           FAIR      46  45  96 NW5       30.21S                  
ASHFORD*         N/A    N/A N/A N/A NW6       30.21S                  
DOTHAN         FAIR      45  42  89 NW6       30.21F                  
PANAMA CITY    FAIR      47  45  93 NW7       30.19S                  

$$